WISE (36119 NORAD) Tracking and Keplerian Element Data

This shows tracking and keplerian element data for the satellite.

Feedback or suggestion? Click here.




ElementValue
Catalog36119
NameWISE
Epoch Orbit80679
Epoch Day159.91538987
Epoch Year2024
RAAN196.3869
Inclination97.1445
Eccentricity0.0003574
Argument of Perigee141.6441
Mean Anonmoly218.5074
Mean Motion15.63792275
Decay Rate0.00071661
L11 36119U 09071A 24159.91538987 .00071661 00000+0 76222-3 0 9990
L22 36119 97.1445 196.3869 0003574 141.6441 218.5074 15.63792275806798



Live tracking and technical data element details for WISE (NORAD 36119). WISE can be tracked NOW for your location showing map with azimuth and elevation plus other details from your city location.







IsCatalogInMostPopularTable: catalog: 36119, numindb: 509
Update: records affected: 1



GetName: 36119 WISE

Hit Count: updated at: Thu, 15 May 2025 18:34:27 GMT